SCP
0 0 0 0 0 0 0 0 0 0 0 0 0 0 0 0 0 0 0 0 0 0
0 0 0 0 1 0 0 0 0 0 0 0 0 0 0 0 0 0 0 0 0 0
0 0 0 0 1 1 1 0 0 0 0 0 0 0 0 0 0 0 0 0 0 0
0 0 1 1 0 1 1 0 0 0 0 0 0 0 0 0 0 0 0 0 0 0
1 1 1 1 0 0 0 0 0 0 0 0 0 0 0 0 0 0 0 0 0 0
2 2 2 2 1 1 0 0 0 0 0 0 0 0 0 0 0 0 0 0 0 0
2 2 2 1 1 0 0 0 0 0 0 0 0 0 0 0 0 0 0 0 0 0
2 1 1 1 0 0 0 0 0 0 0 0 0 0 0 0 0 0 0 0 0 0
2 1 0 0 0 0 0 0 0 0 0 0 0 0 0 0 0 0 0 0 0 0
1 0 0 0 0 0 0 0 0 0 0 0 0 0 0 0 0 0 0 0 0 0
0 0 0 0 0 0 0 0 0 0 0 0 0 0 0 0 0 0 0 0 0 0
0 0 0 0 0 0 0 0 0 0 0 0 0 0 0 0 0 0 0 0 0 0
0 0 0 0 0 0 0 0 0 0 0 0 0 0 0 -0 0 0 0 0 0 0
0 0 0 0 0 0 0 0 0 0 0 0 0 0 0 0 0 0 0 0 0 0
Wind_Speed_500mb
37 48 50 48 40 37 31 27 34 21 16 9 2 6 15 4 13 11 9 12 14 15
50 54 54 47 49 40 36 34 27 22 17 10 6 11 11 9 5 8 10 9 12 14
59 59 55 53 54 43 41 33 31 27 18 10 9 11 5 6 15 7 7 8 12 14
56 64 59 57 53 46 41 37 31 25 19 11 10 8 8 5 3 6 7 9 10 13
58 64 61 58 49 47 46 38 30 30 19 12 9 5 3 2 3 4 5 8 12 14
59 64 68 62 56 51 48 39 42 25 22 15 14 9 6 4 1 3 5 7 9 11
62 65 69 63 60 55 52 46 34 27 29 26 9 12 9 5 2 0 2 5 8 9
62 66 65 63 68 64 57 45 30 41 30 16 21 14 11 7 5 4 7 11 11 5
67 70 70 79 78 65 57 35 44 39 23 24 23 18 14 18 11 10 8 10 7 7
69 71 80 76 73 72 57 43 50 34 27 31 32 19 19 22 16 9 10 7 5 7
73 79 80 77 74 69 51 54 46 35 32 27 24 21 21 21 17 12 9 6 6 8
80 78 75 74 80 67 61 53 41 38 38 35 27 24 22 22 15 10 9 4 4 11
77 73 74 78 75 67 57 48 44 37 36 36 30 27 23 29 15 9 8 2 12 22
74 74 73 75 67 60 50 41 42 37 41 34 31 30 27 32 23 9 5 2 4 14
Wind_Direction_500mb
213 208 205 209 192 190 194 193 217 183 196 193 230 321 350 340 337 316 328 327 340 344
219 214 205 205 185 192 193 197 196 182 187 199 250 306 1 286 342 346 320 330 309 337
219 210 207 208 188 191 192 189 190 185 187 201 267 288 15 323 301 321 310 327 331 335
208 206 203 204 194 191 191 189 186 186 183 208 261 278 324 346 319 296 318 326 331 333
207 203 194 196 192 191 190 189 177 189 207 231 216 232 250 251 251 304 326 329 338 340
199 195 196 193 189 189 193 178 197 200 228 219 204 210 189 167 246 292 318 343 2 3
202 199 199 191 190 195 197 191 207 220 217 216 230 197 171 173 214 317 336 38 39 19
200 201 197 191 192 194 193 196 238 214 214 207 192 194 165 152 141 109 84 58 52 333
203 200 198 192 195 196 193 225 222 209 204 189 195 218 192 150 137 115 92 68 27 332
201 194 194 195 199 194 201 222 207 185 181 186 212 188 165 149 140 126 93 78 62 56
196 195 199 206 197 197 213 206 188 173 180 201 185 166 157 147 139 123 118 117 78 37
201 195 206 202 199 203 197 189 174 163 177 198 174 161 150 142 138 134 142 162 36 16
200 201 211 197 201 197 193 172 159 167 186 195 167 158 148 136 157 157 198 59 293 320
199 201 205 198 199 182 162 157 159 178 188 201 168 157 158 151 139 170 130 169 309 293
Wind_Speed_850mb
37 48 50 48 40 37 31 27 34 21 16 9 2 6 15 4 13 11 9 12 14 15
50 54 54 47 49 40 36 34 27 22 17 10 6 11 11 9 5 8 10 9 12 14
59 59 55 53 54 43 41 33 31 27 18 10 9 11 5 6 15 7 7 8 12 14
56 64 59 57 53 46 41 37 31 25 19 11 10 8 8 5 3 6 7 9 10 13
58 64 61 58 49 47 46 38 30 30 19 12 9 5 3 2 3 4 5 8 12 14
59 64 68 62 56 51 48 39 42 25 22 15 14 9 6 4 1 3 5 7 9 11
62 65 69 63 60 55 52 46 34 27 29 26 9 12 9 5 2 0 2 5 8 9
62 66 65 63 68 64 57 45 30 41 30 16 21 14 11 7 5 4 7 11 11 5
67 70 70 79 78 65 57 35 44 39 23 24 23 18 14 18 11 10 8 10 7 7
69 71 80 76 73 72 57 43 50 34 27 31 32 19 19 22 16 9 10 7 5 7
73 79 80 77 74 69 51 54 46 35 32 27 24 21 21 21 17 12 9 6 6 8
80 78 75 74 80 67 61 53 41 38 38 35 27 24 22 22 15 10 9 4 4 11
77 73 74 78 75 67 57 48 44 37 36 36 30 27 23 29 15 9 8 2 12 22
74 74 73 75 67 60 50 41 42 37 41 34 31 30 27 32 23 9 5 2 4 14
Wind_Direction_850mb
213 208 205 209 192 190 194 193 217 183 196 193 230 321 350 340 337 316 328 327 340 344
219 214 205 205 185 192 193 197 196 182 187 199 250 306 1 286 342 346 320 330 309 337
219 210 207 208 188 191 192 189 190 185 187 201 267 288 15 323 301 321 310 327 331 335
208 206 203 204 194 191 191 189 186 186 183 208 261 278 324 346 319 296 318 326 331 333
207 203 194 196 192 191 190 189 177 189 207 231 216 232 250 251 251 304 326 329 338 340
199 195 196 193 189 189 193 178 197 200 228 219 204 210 189 167 246 292 318 343 2 3
202 199 199 191 190 195 197 191 207 220 217 216 230 197 171 173 214 317 336 38 39 19
200 201 197 191 192 194 193 196 238 214 214 207 192 194 165 152 141 109 84 58 52 333
203 200 198 192 195 196 193 225 222 209 204 189 195 218 192 150 137 115 92 68 27 332
201 194 194 195 199 194 201 222 207 185 181 186 212 188 165 149 140 126 93 78 62 56
196 195 199 206 197 197 213 206 188 173 180 201 185 166 157 147 139 123 118 117 78 37
201 195 206 202 199 203 197 189 174 163 177 198 174 161 150 142 138 134 142 162 36 16
200 201 211 197 201 197 193 172 159 167 186 195 167 158 148 136 157 157 198 59 293 320
199 201 205 198 199 182 162 157 159 178 188 201 168 157 158 151 139 170 130 169 309 293